CW8398 Weather Reports


Display with metric or nautical units.
time (UTC)temp
F
wind
direction
speed
MPH
gust
MPH
rain 1hr
in
rain 24hr
in
rain mn
in
humidity
%
barometer
mb
20260904204802 53 5 0.0 1.0 0.02 0.11 0.11 90 993.0
20260904204302 53 5 0.0 1.0 0.02 0.11 0.11 90 993.0
20260904203802 53 5 0.0 1.0 0.03 0.11 0.11 90 993.0
20260904202802 53 12 0.0 3.0 0.03 0.10 0.10 90 993.0
20260904202305 53 350 0.0 1.0 0.04 0.10 0.10 90 993.0
20260904200802 53 350 0.0 0.0 0.05 0.09 0.09 89 993.0
20260904195802 54 350 0.0 0.0 0.06 0.09 0.09 89 993.0
20260904195305 54 350 0.0 0.0 0.05 0.09 0.09 89 993.0
20260904194802 54 350 0.0 1.0 0.06 0.09 0.09 89 993.2
20260904193802 54 350 0.0 1.0 0.05 0.08 0.08 88 993.2
20260904193303 54 350 0.0 1.0 0.04 0.07 0.07 88 993.2
20260904192802 54 350 0.0 1.0 0.05 0.07 0.07 88 993.2
20260904192306 54 350 0.0 1.0 0.04 0.06 0.06 88 993.2
20260904191802 54 350 0.0 0.0 0.03 0.06 0.06 87 993.2
20260904191303 54 350 0.0 1.0 0.04 0.06 0.06 87 993.2
20260904190802 54 180 0.0 0.0 0.03 0.05 0.05 87 993.8
20260904190302 55 180 0.0 0.0 0.02 0.04 0.04 87 993.8
20260904185802 55 180 0.0 0.0 0.02 0.04 0.04 86 993.8
20260904185306 55 180 0.0 1.0 0.02 0.04 0.04 86 993.8
20260904184302 55 180 0.0 0.0 0.02 0.03 0.03 85 993.8
20260904183802 55 180 0.0 0.0 0.02 0.03 0.03 85 993.8
20260904183302 56 180 0.0 0.0 0.02 0.03 0.03 85 993.8
20260904182802 56 180 0.0 0.0 0.02 0.02 0.02 85 993.8
20260904182305 56 180 0.0 0.0 0.02 0.02 0.02 84 993.8
20260904181802 56 180 0.0 0.0 0.02 0.02 0.02 84 993.8
20260904181302 57 180 0.0 1.0 0.02 0.02 0.02 84 993.8
20260904180302 57 165 0.0 3.0 0.02 0.02 0.02 83 993.8
20260904175802 57 190 0.0 1.0 0.02 0.02 0.02 81 993.8
20260904175305 58 190 0.0 0.0 0.02 0.02 0.02 81 993.8
20260904174802 58 190 0.0 0.0 0.01 0.01 0.01 80 993.8
20260904174302 58 190 0.0 1.0 0.01 0.01 0.01 79 993.8
20260904173302 59 190 0.0 0.0 0.01 0.01 0.01 77 993.8
20260904172802 59 190 0.0 0.0 0.01 0.01 0.01 75 993.8
20260904172305 59 190 0.0 0.0 0.00 0.00 0.00 74 993.9
20260904171802 59 190 0.0 0.0 0.00 0.00 0.00 73 993.9
20260904171302 59 190 0.0 0.0 0.00 0.00 0.00 72 993.9
20260904170302 59 190 0.0 0.0 0.00 0.00 0.00 72 993.9
20260904165802 59 190 0.0 0.0 0.00 0.00 0.00 71 994.0
20260904165305 59 190 0.0 1.0 0.00 0.00 0.00 71 994.0
20260904164302 59 190 0.0 0.0 0.00 0.00 0.00 70 994.0
20260904163802 59 191 0.0 0.0 0.00 0.00 0.00 71 994.0
20260904162802 60 170 0.0 2.0 0.00 0.00 0.00 72 994.0
20260904162302 60 179 1.0 3.0 0.00 0.00 0.00 73 994.0
20260904161802 60 171 1.0 3.0 0.00 0.00 0.00 72 994.1
20260904161303 60 169 2.0 5.0 0.00 0.00 0.00 71 994.1
20260904160802 60 173 1.0 3.0 0.00 0.00 0.00 71 994.5
20260904160302 61 173 2.0 5.0 0.00 0.00 0.00 71 994.5
20260904155802 61 166 1.0 7.0 0.00 0.00 0.00 70 994.5
20260904153802 62 184 1.0 6.0 0.00 0.00 0.00 70 994.5
20260904153302 62 162 1.0 6.0 0.00 0.00 0.00 69 994.5
20260904152802 62 167 1.0 6.0 0.00 0.00 0.00 68 994.5
20260904152306 62 171 1.0 5.0 0.00 0.00 0.00 66 994.5
20260904151802 62 181 1.0 5.0 0.00 0.00 0.00 66 994.5
20260904151303 63 191 1.0 6.0 0.00 0.00 0.00 66 994.5
20260904150802 63 177 0.0 3.0 0.00 0.00 0.00 66 994.5
20260904145802 63 158 2.0 6.0 0.00 0.00 0.00 64 994.8
20260904144802 63 153 1.0 7.0 0.00 0.00 0.00 64 994.8
20260904144302 63 172 2.0 6.0 0.00 0.00 0.00 64 994.8
20260904143803 63 173 1.0 5.0 0.00 0.00 0.00 65 994.8
20260904143302 63 186 1.0 7.0 0.00 0.00 0.00 65 994.8
20260904142306 64 164 2.0 6.0 0.00 0.00 0.00 64 994.8
20260904141802 64 180 1.0 5.0 0.00 0.00 0.00 65 994.8
20260904141302 64 184 1.0 6.0 0.00 0.00 0.00 64 995.6
20260904140802 64 179 2.0 6.0 0.00 0.00 0.00 63 995.6
20260904140302 64 180 0.0 3.0 0.00 0.00 0.00 62 995.6
20260904135802 64 186 1.0 3.0 0.00 0.00 0.00 62 995.6
20260904135305 64 163 1.0 5.0 0.00 0.00 0.00 60 995.6
20260904134802 64 190 1.0 3.0 0.00 0.00 0.00 60 995.6
20260904133802 64 175 0.0 1.0 0.00 0.00 0.00 60 995.6
20260904133302 64 186 1.0 3.0 0.00 0.00 0.00 61 995.6
20260904132802 64 179 1.0 3.0 0.00 0.00 0.00 60 995.6
20260904132306 64 161 0.0 2.0 0.00 0.00 0.00 60 995.6
20260904131802 64 185 1.0 2.0 0.00 0.00 0.00 60 995.6
20260904131302 64 189 1.0 3.0 0.00 0.00 0.00 59 995.6
20260904130303 64 174 2.0 3.0 0.00 0.00 0.00 61 995.6
20260904125802 64 162 1.0 3.0 0.00 0.00 0.00 62 995.6
20260904125305 64 166 1.0 3.0 0.00 0.00 0.00 62 995.6
20260904124802 64 182 0.0 3.0 0.00 0.00 0.00 63 995.6
20260904123302 63 168 0.0 2.0 0.00 0.00 0.00 68 995.8
20260904122802 63 164 0.0 3.0 0.00 0.00 0.00 67 995.8
20260904122306 63 27 1.0 3.0 0.00 0.00 0.00 66 995.8
20260904121802 64 41 0.0 2.0 0.00 0.00 0.00 66 995.8
20260904120802 64 185 0.0 3.0 0.00 0.00 0.00 66 996.7
20260904120303 64 202 0.0 1.0 0.00 0.00 0.00 66 996.7
20260904115803 64 21 0.0 1.0 0.00 0.00 0.00 65 996.7
20260904115306 64 158 2.0 6.0 0.00 0.00 0.00 66 996.7
20260904114802 64 355 0.0 1.0 0.00 0.00 0.00 65 996.7
20260904114302 64 355 0.0 0.0 0.00 0.00 0.00 64 996.7
20260904113802 64 355 0.0 1.0 0.00 0.00 0.00 63 996.7
20260904113302 64 355 0.0 0.0 0.00 0.00 0.00 64 996.7
20260904112802 64 355 0.0 0.0 0.00 0.00 0.00 64 996.7
20260904112305 64 0 0.0 0.0 0.00 0.00 0.00 64 996.7
20260904111802 63 5 0.0 1.0 0.00 0.00 0.00 65 996.7
20260904111303 63 17 0.0 0.0 0.00 0.00 0.00 65 996.7
20260904110802 63 22 1.0 2.0 0.00 0.00 0.00 65 996.7
20260904110303 63 5 0.0 3.0 0.00 0.00 0.00 65 996.7
20260904105802 63 28 0.0 3.0 0.00 0.00 0.00 65 996.7
20260904105305 63 50 0.0 2.0 0.00 0.00 0.00 66 996.7
20260904104802 63 49 0.0 3.0 0.00 0.00 0.00 66 996.7
20260904104302 63 34 1.0 2.0 0.00 0.00 0.00 66 996.7
20260904102802 63 27 1.0 3.0 0.00 0.00 0.00 67 996.7
20260904101802 62 341 0.0 3.0 0.00 0.00 0.00 68 996.7
20260904101302 62 0 0.0 3.0 0.00 0.00 0.00 67 996.7
20260904100802 62 353 0.0 3.0 0.00 0.00 0.00 68 996.7
20260904100303 62 32 2.0 3.0 0.00 0.00 0.00 68 996.7
20260904095306 62 345 1.0 3.0 0.00 0.00 0.00 70 996.8
20260904094803 62 17 1.0 3.0 0.00 0.00 0.00 70 996.8
20260904094302 62 332 0.0 2.0 0.00 0.00 0.00 71 996.8
20260904093802 61 325 0.0 3.0 0.00 0.00 0.00 72 996.8
20260904093303 61 37 0.0 1.0 0.00 0.00 0.00 73 996.8
20260904092802 61 18 1.0 2.0 0.00 0.00 0.00 74 996.8
20260904092306 61 17 1.0 3.0 0.00 0.00 0.00 76 996.8
20260904091805 60 9 0.0 1.0 0.00 0.00 0.00 77 997.0
20260904091302 60 30 1.0 3.0 0.00 0.00 0.00 77 997.0
20260904090803 60 288 0.0 3.0 0.00 0.00 0.00 78 997.0
20260904090302 60 320 2.0 3.0 0.00 0.00 0.00 78 997.0
20260904085803 59 232 1.0 3.0 0.00 0.00 0.00 78 997.0
20260904085305 59 242 1.0 3.0 0.00 0.00 0.00 78 997.0
20260904084803 59 267 1.0 3.0 0.00 0.00 0.00 79 997.0
20260904082803 59 311 1.0 3.0 0.00 0.00 0.00 80 997.2
20260904082305 59 9 0.0 3.0 0.00 0.00 0.00 80 997.2
20260904081803 58 297 2.0 3.0 0.00 0.00 0.00 80 997.2
20260904081303 58 273 1.0 3.0 0.00 0.00 0.00 81 997.2
20260904080802 58 281 2.0 3.0 0.00 0.00 0.00 82 997.2
20260904080302 58 286 1.0 3.0 0.00 0.00 0.00 82 997.2
20260904075306 57 323 0.0 2.0 0.00 0.00 0.00 83 997.2
20260904074803 57 342 2.0 5.0 0.00 0.00 0.00 83 997.2
20260904074303 57 319 1.0 5.0 0.00 0.00 0.00 83 997.2
20260904073302 56 254 1.0 3.0 0.00 0.00 0.00 83 997.2
20260904072802 56 298 2.0 3.0 0.00 0.00 0.00 83 997.2
20260904072305 56 316 2.0 3.0 0.00 0.00 0.00 84 997.2
20260904071802 56 305 0.0 3.0 0.00 0.00 0.00 84 997.2
20260904071302 55 321 1.0 3.0 0.00 0.00 0.00 84 997.2
20260904065805 55 298 1.0 3.0 0.00 0.00 0.00 88 997.2
20260904065306 54 310 2.0 3.0 0.00 0.00 0.00 89 997.3
20260904064803 54 294 1.0 3.0 0.00 0.00 0.00 91 997.3
20260904064303 54 297 2.0 6.0 0.00 0.00 0.00 91 997.3
20260904063802 54 284 2.0 6.0 0.00 0.00 0.00 93 997.3
20260904063303 53 295 1.0 5.0 0.00 0.00 0.00 93 997.3
20260904062803 53 275 1.0 7.0 0.00 0.00 0.00 94 997.3
20260904062306 53 280 0.0 3.0 0.00 0.00 0.00 94 997.3
20260904061802 53 264 1.0 3.0 0.00 0.00 0.00 94 997.3
20260904061303 53 236 1.0 3.0 0.00 0.00 0.00 95 997.3
20260904060802 52 218 0.0 1.0 0.00 0.00 0.00 95 997.3
20260904055803 52 261 0.0 2.0 0.00 0.00 0.00 95 997.3
20260904055306 52 317 0.0 0.0 0.00 0.00 0.00 95 997.3
20260904054802 52 330 1.0 3.0 0.00 0.00 0.00 95 997.3
20260904054302 51 275 2.0 3.0 0.00 0.00 0.00 95 997.3
20260904053803 51 276 1.0 3.0 0.00 0.00 0.00 95 997.3
20260904053302 51 335 2.0 7.0 0.00 0.00 0.00 95 997.3
20260904052803 50 300 2.0 3.0 0.00 0.00 0.00 95 997.3
20260904052306 50 300 1.0 3.0 0.00 0.00 0.00 95 997.3
20260904051803 50 274 2.0 3.0 0.00 0.00 0.00 95 997.9
20260904051303 49 330 1.0 3.0 0.00 0.00 0.00 95 997.9
20260904050803 49 317 0.0 0.0 0.00 0.00 0.00 94 997.9
20260904050303 49 301 0.0 0.0 0.00 0.00 0.00 94 997.9
20260904045803 49 327 0.0 0.0 0.00 0.00 0.00 95 997.9
20260904045306 49 327 0.0 0.0 0.00 0.00 0.00 95 997.9
20260904043303 48 317 0.0 0.0 0.00 0.00 0.00 95 997.9
20260904042802 48 355 0.0 0.0 0.00 0.00 0.00 94 997.9
20260904042305 47 280 0.0 0.0 0.00 0.00 0.00 94 997.9
20260904041803 47 311 0.0 0.0 0.00 0.00 0.00 94 997.9
20260904041303 47 248 0.0 0.0 0.00 0.00 0.00 94 997.9
20260904040802 47 194 0.0 0.0 0.00 0.00 0.00 94 997.9
20260904040303 47 194 0.0 0.0 0.00 0.00 0.00 94 997.9
20260904035803 46 194 0.0 0.0 0.00 0.00 0.00 93 997.9
20260904035305 46 194 0.0 0.0 0.00 0.00 0.00 93 997.9
20260904034802 46 194 0.0 0.0 0.00 0.00 0.00 93 997.9
20260904034302 46 194 0.0 0.0 0.00 0.00 0.00 93 997.9
20260904033802 46 194 0.0 0.0 0.00 0.00 0.00 93 997.9
20260904033303 46 194 0.0 0.0 0.00 0.00 0.00 93 997.9
20260904032803 46 194 0.0 0.0 0.00 0.00 0.00 93 997.9
20260904031803 46 194 0.0 0.0 0.00 0.00 0.00 93 997.9
20260904030803 46 194 0.0 0.0 0.00 0.00 0.00 93 997.9
20260904030302 46 194 0.0 0.0 0.00 0.00 0.00 93 998.1
20260904025803 46 194 0.0 0.0 0.00 0.00 0.00 93 998.1
20260904025305 46 194 0.0 0.0 0.00 0.00 0.00 93 998.1
20260904024803 46 194 0.0 0.0 0.00 0.00 0.00 92 998.1
20260904024302 46 194 0.0 0.0 0.00 0.00 0.00 92 998.1
20260904023803 46 194 0.0 0.0 0.00 0.00 0.00 92 998.1
20260904022803 46 194 0.0 0.0 0.00 0.00 0.00 92 999.0
20260904022305 46 194 0.0 0.0 0.00 0.00 0.00 92 999.0
20260904021802 47 194 0.0 0.0 0.00 0.00 0.00 92 999.0
20260904021303 47 194 0.0 0.0 0.00 0.00 0.00 92 999.0
20260904020802 47 194 0.0 0.0 0.00 0.00 0.00 92 999.0
20260904020302 47 194 0.0 0.0 0.00 0.00 0.00 92 999.0
20260904015802 47 194 0.0 0.0 0.00 0.00 0.00 92 999.0
20260904014803 47 194 0.0 0.0 0.00 0.00 0.00 92 999.0
20260904014302 47 194 0.0 0.0 0.00 0.00 0.00 92 999.0
20260904013303 47 194 0.0 0.0 0.00 0.00 0.00 91 999.0
20260904012803 47 194 0.0 0.0 0.00 0.00 0.00 91 999.0
20260904012306 47 194 0.0 1.0 0.00 0.00 0.00 91 999.0
20260904011803 47 194 0.0 0.0 0.00 0.00 0.00 91 999.0
20260904011302 47 194 0.0 0.0 0.00 0.00 0.00 91 999.0
20260904010803 47 194 0.0 0.0 0.00 0.00 0.00 91 999.0
20260904010302 47 194 0.0 0.0 0.00 0.00 0.00 91 999.3
20260904005803 47 194 0.0 0.0 0.00 0.00 0.00 90 999.3
20260904005306 47 194 0.0 0.0 0.00 0.00 0.00 90 999.3
20260904004802 47 194 0.0 0.0 0.00 0.00 0.00 90 999.3
20260904004304 47 194 0.0 0.0 0.00 0.00 0.00 90 999.3
20260904003803 47 194 0.0 0.0 0.00 0.00 0.00 90 999.3
20260904003305 47 194 0.0 0.0 0.00 0.00 0.00 90 999.3
20260904002803 47 194 0.0 0.0 0.00 0.00 0.00 90 999.3
20260904002306 47 194 0.0 0.0 0.00 0.00 0.00 90 999.3
20260904001803 47 194 0.0 0.0 0.00 0.00 0.00 90 999.3
20260904001303 47 194 0.0 0.0 0.00 0.00 0.00 90 999.3
20260904000803 48 194 0.0 0.0 0.00 0.00 0.00 90 999.5
20260904000303 48 194 0.0 0.0 0.00 0.00 0.00 89 999.5
20260903235803 48 194 0.0 0.0 0.00 0.00 0.00 89 999.5
20260903235305 48 194 0.0 0.0 0.00 0.00 0.00 88 999.5
20260903234803 48 194 0.0 0.0 0.00 0.00 0.00 88 999.5
20260903234303 48 194 0.0 0.0 0.00 0.00 0.00 88 999.8
20260903233803 48 194 0.0 0.0 0.00 0.00 0.00 87 999.8
20260903233303 48 194 0.0 0.0 0.00 0.00 0.00 87 999.8
20260903232803 48 194 0.0 1.0 0.00 0.00 0.00 86 999.8
20260903232305 48 194 1.0 2.0 0.00 0.00 0.00 86 999.8
20260903230803 49 194 0.0 1.0 0.00 0.00 0.00 85 999.8
20260903225802 49 194 0.0 1.0 0.00 0.00 0.00 84 1000.2
20260903225306 49 194 1.0 2.0 0.00 0.00 0.00 84 1000.2
20260903224803 50 194 1.0 1.0 0.00 0.00 0.00 84 1000.2
20260903224303 50 194 0.0 0.0 0.00 0.00 0.00 84 1000.2
20260903223302 50 194 0.0 0.0 0.00 0.00 0.00 85 1000.2
20260903222803 50 194 0.0 0.0 0.00 0.00 0.00 84 1000.2
20260903222305 50 194 0.0 0.0 0.00 0.00 0.00 84 1000.2
20260903221803 50 194 0.0 0.0 0.00 0.00 0.00 83 1000.2
20260903221303 51 194 0.0 0.0 0.00 0.00 0.00 82 1000.2
20260903220815 51 194 0.0 0.0 0.00 0.00 0.00 81 1000.2
20260903215803 51 194 0.0 0.0 0.00 0.00 0.00 80 1000.5
20260903215306 51 194 0.0 0.0 0.00 0.00 0.00 81 1000.5
20260903214803 52 194 0.0 0.0 0.00 0.00 0.00 80 1000.5
20260903213803 52 194 0.0 1.0 0.00 0.00 0.00 79 1000.5
20260903212306 53 194 0.0 0.0 0.00 0.00 0.00 78 1000.5
20260903211802 53 194 0.0 1.0 0.00 0.00 0.00 78 1000.7
20260903211303 53 194 1.0 2.0 0.00 0.00 0.00 77 1000.7
20260903210802 54 194 0.0 2.0 0.00 0.00 0.00 77 1001.2
20260903210302 54 194 0.0 0.0 0.00 0.00 0.00 76 1001.2
20260903205803 54 194 0.0 1.0 0.00 0.00 0.00 76 1001.2